Location: Julian California
(33.0790°N, 116.6010°W)
Time: 17:23:58
(UTC-07:00)

Meteor 2-21 - Pass Details

Date: 12 July 2018
Orbit: 933 x 967 km, 82.5° (Epoch: 16 July)

Event Time Altitude Azimuth Distance (km) Brightness Sun altitude
Rises 21:53:13 0° 352° (N) 3,608 8.3 -20.5°
Reaches altitude 10° 21:55:42 10° 351° (N) 2,664 7.6 -20.8°
Maximum altitude 22:01:47 81° 265° (W) 964 4.4 -21.7°
Enters shadow 22:04:50 32° 182° (S) 1,576 5.2 -22.1°
